sat.trackr.live / text

‹ back to catalog

STARLINK-1646

NORAD 46351 · 2020-062AC

PAYLOAD ACTIVE UNKNOWN

§ Identity

Operator
Country
US
Launch date
2020-09-03
Launch site
AFETR
Launch vehicle
Mass (kg)
RCS (m²)

Purposes: comms

External: N2YO · Heavens-Above · Gunter

§ Orbital elements

Epoch: 2026-05-24T20:48:14.982912Z

Period
91.51 min
Inclination
53.0414°
Eccentricity
0.0003836
Mean motion
15.73656026 rev/d
Perigee alt
345.9 km
Apogee alt
351.0 km
Semi-major
6,726.6 km
B*
7.5171e-4
RAAN
321.3493°
Arg perigee
279.2384°
Mean anomaly
80.8200°
Rev number
31,683

§ Raw data

STARLINK-16461 46351U 20062AC  26144.86684008  .00108405  00000+0  75171-3 0  99972 46351  53.0414 321.3493 0003836 279.2384  80.8200 15.73656026316838

JSON: /api/v1/satellites/46351 · /tle

For live sub-satellite position, see the globe view (requires WebGL).

§ Visibility from observer

Set your observer location to see the next 7 days of passes ≥ 10°. The values pass through the URL so the page stays shareable.

No JS? Fill the form by hand. The geolocation button needs JavaScript.